Regional Weather Roundup
Issued by NWS

Home | Current Version | Previous Version | Graphics & Text | Print | Product List | Glossary Off
Versions: 1 2 3 4 5 6 7 8 9 10 11 12 13 14 15 16 17 18 19 20 21 22 23 24 25 26 27 28 29 30 31 32 33 34 35 36 37 38 39 40 41 42 43 44 45 46 47 48 49 50

000
ASUS43 KMKX 051621
RWRWI

WISCONSIN REGIONAL WEATHER ROUNDUP
NATIONAL WEATHER SERVICE MILWAUKEE/SULLIVAN WI
1100 AM CDT SUN JUL 05 2015

NOTE: "FAIR" INDICATES FEW OR NO CLOUDS BELOW 12,000 FEET WITH NO
SIGNIFICANT WEATHER AND/OR OBSTRUCTIONS TO VISIBILITY.

WIZ001-002-006>008-014>016-023>028-051700-
NORTHWEST WISCONSIN

CITY           SKY/WX    TMP DP  RH WIND       PRES   REMARKS
SUPERIOR ARPT  MOSUNNY   78  66  67 S8        29.86F
ASHLAND        MOSUNNY   78  65  63 S10G21    29.92S HX  80
HAYWARD        MOSUNNY   77  61  57 SW13      29.94F
SIREN          PTSUNNY   78  61  56 S10G17    29.90F
CUMBERLAND     MOSUNNY   73  61  64 S12G17    29.95F
RICE LAKE      MOSUNNY   76  62  60 S12G18    29.97S
CHETEK         MOSUNNY   77  64  64 S10       29.96F
LADYSMITH      MOSUNNY   76  63  65 S10       30.00F
EAU CLAIRE     MOSUNNY   78  62  57 S10       29.96F HX  80
MENOMONIE      MOSUNNY   78  64  61 S15       29.97R HX  80
NEW RICHMOND   PTSUNNY   76  62  62 S15       29.93F
OSCEOLA        CLOUDY    75  63  66 S14       29.94S
$$

WIZ003>005-009-010-017-018-051700-
NORTH CENTRAL WISCONSIN

CITY           SKY/WX    TMP DP  RH WIND       PRES   REMARKS
MANITOWISH WTR MOSUNNY   74  63  68 SW13      29.99S
ARBOR VITAE    MOSUNNY   77  65  65 S16       30.01S
WOODRUFF       MOSUNNY   77  65  65 S16       30.01S
RHINELANDER    MOSUNNY   76  61  59 SW13G21   30.03F
EAGLE RIVER    PTSUNNY   73  59  60 SW12G20   30.01S
LAND O LAKES   MOSUNNY   76  60  58 SW9       30.01F
PHILLIPS       PTSUNNY   73  62  68 SW14      30.00S
TOMAHAWK       MOSUNNY   75  61  62 SW5       30.03S
MEDFORD        MOSUNNY   74  62  66 S10G16    30.02F
MERRILL        MOSUNNY   75  62  64 SW9G17    30.04R
$$

WIZ029-030-035-036-043>047-051700-
CENTRAL WISCONSIN

CITY           SKY/WX    TMP DP  RH WIND       PRES   REMARKS
WAUSAU         MOSUNNY   76  60  57 SW13      30.02S
MOSINEE        MOSUNNY   75  64  69 S8        30.04F
MARSHFIELD     MOSUNNY   76  61  59 SW10      30.03S
STEVENS POINT  MOSUNNY   74  60  59 SW10G16   30.04S
WAUPACA        SUNNY     80  62  54 S8        30.04F HX  81
WAUTOMA        MOSUNNY   80  62  54 SW12      30.05F HX  81
WISC RAPIDS    MOSUNNY   77  61  57 S10       30.05S
CAMP DOUGLAS   MOSUNNY   77  70  78 VRB5      30.03S
$$

WIZ011>013-019>022-031-037>040-048>050-051700-
NORTHEAST WISCONSIN

CITY           SKY/WX    TMP DP  RH WIND       PRES   REMARKS
ANTIGO         MOSUNNY   73  63  71 SW8       30.05S
SHAWANO        MOSUNNY   79  63  56 S6        30.04S HX  81
OCONTO         SUNNY     79  64  60 SW7       30.04S HX  80
STURGEON BAY   PTSUNNY   77  63  61 SW8       30.07S
GREEN BAY      SUNNY     79  64  60 SW12      30.05R HX  81
MANITOWOC      SUNNY     74  66  76 MISG      30.06S
APPLETON       MOSUNNY   75  61  60 SW10      30.06S
CLINTONVILLE   SUNNY     79  61  53 SW9       30.04S HX  80
OSHKOSH        MOSUNNY   78  63  59 SW9G20    30.06R HX  80
$$

WIZ032>034-041-042-053>061-051700-
SOUTHWEST WISCONSIN

CITY           SKY/WX    TMP DP  RH WIND       PRES   REMARKS
LA CROSSE      SUNNY     78  63  59 S9        29.99F HX  80
SPARTA         SUNNY     79  60  50 S8        30.02F HX  80
VIROQUA        SUNNY     77  63  63 S13G18    30.05S
BOSCOBEL       SUNNY     80  64  58 S8        30.03S HX  82
PRAIRIE DU CHI SUNNY     78  62  59 S6        30.02F
PLATTEVILLE    SUNNY     77  67  70 S12       30.06R
$$

WIZ056-057-062-063-064-067-068-051700-
SOUTH CENTRAL WISCONSIN

CITY           SKY/WX    TMP DP  RH WIND       PRES   REMARKS
REEDSBURG      MOSUNNY   76  65  68 S9        30.04S
BARABOO/DELLS  SUNNY     77  62  59 SW8       30.05S
LONE ROCK      MOSUNNY   78  64  61 SW9       30.05S HX  80
MINERAL POINT  MOSUNNY   77  64  65 S10       30.06S
MADISON        MOSUNNY   77  62  59 SW7       30.05S
MIDDLETON      PTSUNNY   77  61  58 SW8       30.06F
WATERTOWN      SUNNY     76  66  69 SW10      30.06S
MONROE         MOSUNNY   75  63  64 SW12G17   30.07F
JANESVILLE     MOSUNNY   79  63  57 S9        30.07S HX  80
$$

WIZ051-052-058>065-066-070>072-051700-
SOUTHEAST WISCONSIN

CITY           SKY/WX    TMP DP  RH WIND       PRES   REMARKS
MILWAUKEE      MOSUNNY   79  60  52 S6        30.07S HX  80
WAUKESHA       MOSUNNY   73  61  64 SW7       30.09S
MILWAUKEE/TIMM SUNNY     79  55  44 SW6       30.08S
RACINE         MOSUNNY   79  60  52 SW8       30.09S HX  80
BURLINGTON     SUNNY     75  62  63 SW6       30.08S
KENOSHA        MOSUNNY   79  62  56 VRB6      30.08F HX  80
FOND DU LAC    SUNNY     77  62  59 SW10      30.06S
SHEBOYGAN      SUNNY     78  63  59 SW8       30.06S HX  80
WEST BEND      MOSUNNY   77  59  53 S8        30.07S
JUNEAU         MOSUNNY   75  64  67 SW12      30.09R
$$

LSZ147-162-051700-
LAKE SUPERIOR

STATION/POSITION TIME  TEMP    WIND        PRES    WAVE
                       AIR SEA DIR/SP/G            HT/PER
                 (UTC) (F)     (DEG/KT/KT) (MB)    (FT/S)
W MID LAKE BUOY  1550   53 39  350/  2/  4 1013.5R   0
DEVILS ISLAND    1600   62     120/  3/  4 1012.3F
SAXON HARBOR     1500   76     200/  8/ 13 1012.9F
$$

LMZ867-665-643>646-051700-
LAKE MICHIGAN

STATION/POSITION TIME  TEMP    WIND        PRES    WAVE
                       AIR SEA DIR/SP/G            HT/PER
                 (UTC) (F)     (DEG/KT/KT) (MB)    (FT/S)
CHAMBERS ISLAND  1500   71     170/  6/ 10 1016.9S
N MID LAKE BUOY  1550   55 47  200/ 12/ 14 1017.7R   1/ 3
NORTHPORT PIER   1500   64     150/  7/  9 1016.9F
SISTER BAY       1429   74     180/  6/  8   N/A
ALGOMA LAKESHORE 1541             CALM       N/A
KEWAUNEE LAKESHO 1500   63     180/  9/ 10 1017.0F
SHEBOYGAN LAKESH 1600   62     160/ 13/ 13 1018.4R
PORT WASHINGTON  1500   67     170/  3/  4 1018.6F
ATWATER BUOY     1600   64 61  140/ 10/ 10 1019.4F
MILWAUKEE LAKESH 1600   65     120/  9/ 10   N/A
KENOSHA   LAKESH 1600   68     160/  8/ 10 1018.3S
$$

TC  - TEMPERATURE IN CELSIUS
VSB - VISIBILITY IN STATUTE MILES
WCI - WIND CHILL INDEX
HX  - HEAT INDEX




USA.gov is the U.S. government's official web portal to all federal, state and local government web resources and services.